Printer-friendly version

IAU Minor Planet Center

Minor Planet Center

MPEC 2006-S58 : 2006 SG77

The following Minor Planet Electronic Circular may be linked-to from your own Web pages, but must not otherwise be redistributed electronically.


Read MPEC 2006-S57 Read MPEC 2006-S59


M.P.E.C. 2006-S58                                Issued 2006 Sept. 25, 10:06 UT

     The Minor Planet Electronic Circulars contain information on unusual
         minor planets and routine data on comets.  They are published
   on behalf of Commission 20 of the International Astronomical Union by the
          Minor Planet Center, Smithsonian Astrophysical Observatory,
                          Cambridge, MA 02138, U.S.A.

                  Supported in part by the Brinson Foundation
                  Supported in part by the TABASGO Foundation
             Prepared using the Tamkin Foundation Computer Network

                              MPC@CFA.HARVARD.EDU
          URL http://cfa-www.harvard.edu/iau/mpc.html  ISSN 1523-6714

                                   2006 SG77

Observations:
     K06S77G* C2006 09 24.25641 00 08 58.09 +31 18 54.2          19.4 R ES058699
     K06S77G  C2006 09 24.27929 00 09 00.45 +31 19 14.1                 ES058699
     K06S77G  C2006 09 24.30220 00 09 02.75 +31 19 32.3                 ES058699
     K06S77G  C2006 09 24.32511 00 09 04.87 +31 19 51.9                 ES058699
     K06S77G  C2006 09 24.44269 00 09 16.82 +31 21 23.8          19.2 R ES058699
     K06S77G  C2006 09 24.44818 00 09 17.46 +31 21 28.2                 ES058699
     K06S77G  C2006 09 24.45366 00 09 17.96 +31 21 32.1                 ES058699
     K06S77G  C2006 09 24.45915 00 09 18.56 +31 21 35.9                 ES058699
     K06S77G  C2006 09 24.81625 00 10 01.58 +31 26 20.0          19.1 V ES058A17
     K06S77G  C2006 09 24.83041 00 10 02.95 +31 26 32.2          19.5 R ES058113
     K06S77G  C2006 09 24.83222 00 10 03.29 +31 26 33.7          19.3 V ES058A17
     K06S77G  C2006 09 24.83345 00 10 03.27 +31 26 35.2          19.6 R ES058113
     K06S77G  C2006 09 24.83648 00 10 03.61 +31 26 37.3          19.8 R ES058113
     K06S77G  C2006 09 24.85107 00 10 05.31 +31 26 50.0          19.4 V ES058A17
     K06S77G  C2006 09 24.86224 00 10 06.70 +31 26 56.9                 ES058J95
     K06S77G  C2006 09 24.86648 00 10 07.04 +31 26 59.9                 ES058J95
     K06S77G  C2006 09 24.87014 00 10 07.55 +31 27 03.5          19.1 R ES058J95
     K06S77G  C2006 09 24.87282 00 10 07.51 +31 27 09.8                 ES058246
     K06S77G  C2006 09 24.87360 00 10 07.56 +31 27 10.9                 ES058246
     K06S77G  C2006 09 24.87459 00 10 07.72 +31 27 11.2                 ES058246
     K06S77G  C2006 09 24.87586 00 10 07.86 +31 27 11.7                 ES058246
     K06S77G  C2006 09 24.87639 00 10 07.88 +31 27 12.5                 ES058246
     K06S77G  C2006 09 24.88127 00 10 08.34 +31 27 16.5          19.5 R ES058118
     K06S77G  C2006 09 24.88765 00 10 09.01 +31 27 22.0          19.4 R ES058118
     K06S77G  C2006 09 24.89047 00 10 09.28 +31 27 24.2          19.4 R ES058118
     K06S77G  C2006 09 24.89137 00 10 09.52 +31 27 25.3          19.3 V ES058A44
     K06S77G  C2006 09 24.89806 00 10 10.20 +31 27 30.6          19.4 V ES058A44
     K06S77G  C2006 09 24.90688 00 10 11.09 +31 27 38.1          19.3 V ES058A44
     K06S77G  C2006 09 24.93511 00 10 14.01 +31 28 02.0          19.2 R ES058473
     K06S77G  C2006 09 24.94590 00 10 15.16 +31 28 11.0                 ES058473
     K06S77G  C2006 09 24.95454 00 10 16.02 +31 28 18.0          19.2 R ES058473
     K06S77G 5C2006 09 25.26157 00 10 51.87 +31 32 27.7          19.4 R ES058673
     K06S77G IC2006 09 25.26242 00 10 51.46 +31 32 30.1                 ES058711
     K06S77G 5C2006 09 25.26713 00 10 52.43 +31 32 32.3                 ES058673
     K06S77G  C2006 09 25.27302 00 10 52.45 +31 32 40.2          19.2 R ES058711
     K06S77G 5C2006 09 25.27465 00 10 53.24 +31 32 38.6                 ES058673
     K06S77G  C2006 09 25.28084 00 10 53.62 +31 32 45.3          19.8 R ES058854
     K06S77G 5C2006 09 25.28322 00 10 54.10 +31 32 45.5                 ES058673
     K06S77G  C2006 09 25.28660 00 10 54.27 +31 32 49.8          19.7 R ES058854
     K06S77G  C2006 09 25.29234 00 10 54.77 +31 32 54.2          20.0 R ES058854
     K06S77G  C2006 09 25.36322 00 11 01.71 +31 33 44.0          19.6 R ES058734
     K06S77G  C2006 09 25.36469 00 11 01.84 +31 33 45.1          19.2 R ES058734
     K06S77G  C2006 09 25.36616 00 11 02.02 +31 33 45.8          19.4 R ES058734
     K06S77G  C2006 09 25.36762 00 11 02.19 +31 33 47.3          19.4 R ES058734
     K06S77G  C2006 09 25.36909 00 11 02.34 +31 33 48.5          19.2 R ES058734
     K06S77G  C2006 09 25.37054 00 11 02.49 +31 33 49.6          19.2 R ES058734

Observer details:
113 Volkssternwarte Drebach, Schoenbrunn.  Observer A. Knoefel.  Measurer
    A. Knoefel.  0.5-m f/5 reflector + CCD.
118 Modra.  Observer L. Kornos.  0.6-m f/5.5 reflector + CCD.
246 Klet Observatory-KLENOT.  Observers J. Ticha, M. Tichy.  Measurer M. Tichy.
    1.06-m KLENOT Telescope + CCD.
473 Remanzacco.  Observers G. Sostero, E. Guido.  0.45-m f/4.4 Newtonian
    reflector + CCD.
673 Table Mountain Observatory, Wrightwood.  Observer J. Young.  0.61-m f/16
    Cassegrain + CCD.
699 Lowell Observatory-LONEOS.  Observer M. E. Van Ness.  0.59-m LONEOS
    Schmidt + CCD.
711 McDonald Observatory.  Observer J. G. Ries.  0.76-m reflector + CCD
    + prime-focus corrector.
734 Farpoint Observatory.  Observer D. Tibbets.  Measurer G. Hug.  0.7-m
    reflector + CCD.
854 Sabino Canyon Observatory, Tucson.  Observer J. E. McGaha.  0.36-m f/10.0
    Schmidt-Cassegrain + CCD.
A17 Guidestar Observatory, Weinheim.  Observers M. Emmerich, S. Melchert.
    0.36-m f/6 Schmidt-Cassegrain + CCD.
A44 Altschwendt.  Observer W. Ries.  0.45-m f/3.6 reflector + CCD.
J95 Great Shefford.  Observer P. Birtwhistle.  0.40-m f/6.0 Schmidt-Cassegrain
    + CCD.

Orbital elements:
2006 SG77                                                Earth MOID = 0.1921 AU
Epoch 2006 Sept. 22.0 TT = JDT 2454000.5                MPC
M 351.72318              (2000.0)            P               Q
n   0.21091536     Peri.  162.41012     +0.78752893     -0.60611274
a   2.7950993      Node   235.42120     +0.54790166     +0.77141110
e   0.5777508      Incl.    7.78096     +0.28213820     +0.19378408
P   4.67           H   20.8           G   0.15           U   8
Residuals in seconds of arc
060924 699  0.9-  0.0     060924 J95  0.6+  0.3-    060925 711  0.5-  1.0-
060924 699  0.3+  0.6+    060924 246  0.0   0.7+    060925 673  0.1-  0.1+
060924 699  0.7+  0.3-    060924 246  0.4-  1.2+    060925 711  1.7-  0.6+
060924 699  1.2-  0.4+    060924 246  0.3+  0.6+    060925 673  0.4+  0.3+
060924 699  0.0   0.0     060924 246  0.4+  0.1+    060925 854  0.0   0.5+
060924 699  0.9+  0.3+    060924 246  0.0   0.4+    060925 673  0.1+  0.2+
060924 699  0.0   0.0     060924 118  0.2+  0.1-    060925 854  0.8+  0.4+
060924 699  0.4+  0.3-    060924 118  0.3+  0.1+    060925 854  0.4-  0.2+
060924 A17  0.2-  0.1+    060924 118  0.0   0.1-    060925 734  0.1+  0.1-
060924 113  0.8-  0.0     060924 A44  0.6+  0.5+    060925 734  0.2-  0.1-
060924 A17  0.3-  0.1+    060924 A44  0.4+  0.2+    060925 734  0.1+  0.5-
060924 113  0.9-  0.4+    060924 A44  0.1+  0.4+    060925 734  0.3+  0.0
060924 113  0.6-  0.1-    060924 473  0.4-  0.1+    060925 734  0.2+  0.1+
060924 A17  0.1-  0.2+    060924 473  0.1+  0.3+    060925 734  0.2+  0.1+
060924 J95  0.6+  0.2-    060924 473  0.3-  0.3+
060924 J95  0.9-  0.8-    060925 673  0.1+  0.1+

Ephemeris:
2006 SG77                a,e,i = 2.80, 0.58, 8                   q = 1.1802
Date    TT    R. A. (2000) Decl.     Delta      r     Elong.  Phase     V
2006 09 22    00 04.94   +30 46.5    0.300   1.2693   148.7    24.3    19.8
2006 10 02    00 25.45   +32 46.5    0.257   1.2310   150.6    23.5    19.4
2006 10 12    00 54.25   +33 24.4    0.224   1.2026   153.6    21.6    19.0
2006 10 22    01 31.52   +31 59.8    0.202   1.1854   158.7    17.8    18.6
2006 11 01    02 13.55   +28 12.3    0.193   1.1803   165.9    11.8    18.3
2006 11 11    02 53.67   +22 44.0    0.198   1.1873   174.1     4.9    18.1
2006 11 21    03 26.66   +17 07.1    0.219   1.2062   174.9     4.1    18.3
2006 12 01    03 51.85   +12 40.9    0.255   1.2361   167.6     9.8    18.9
2006 12 11    04 11.13   +09 50.9    0.304   1.2759   160.6    14.8    19.6
2006 12 21    04 26.74   +08 25.8    0.367   1.3239   154.1    19.0    20.2
2006 12 31    04 40.69   +08 03.3    0.443   1.3789   147.8    22.3    20.8
2007 01 10    04 54.19   +08 21.0    0.532   1.4393   141.6    25.1    21.4
2007 01 20    05 07.90   +09 01.6    0.634   1.5039   135.5    27.3    21.9

Timothy B. Spahr             (C) Copyright 2006 MPC           M.P.E.C. 2006-S58

Read MPEC 2006-S57 Read MPEC 2006-S59


Our Web policy. Index to the CBAT/MPC/ICQ pages.


Valid HTML 4.01!